| time (UTC) | temp C | wind direction | speed KPH | gust KPH | rain 1hr cm | rain 24hr cm | rain mn cm | humidity % | barometer mb |
| 20260506135101 | 13 | 232 | 3.2 | 12.9 | 0.00 | 1.24 | 0.56 | 79 | 1015.5 |
| 20260506135002 | 13 | 276 | 4.8 | 12.9 | 0.00 | 1.24 | 0.56 | 78 | 1020.1 |
| 20260506134600 | 13 | 216 | 4.8 | 14.5 | 0.00 | 1.24 | 0.56 | 77 | 1015.5 |
| 20260506134501 | 13 | 236 | 6.4 | 14.5 | 0.00 | 1.24 | 0.56 | 77 | 1020.0 |
| 20260506134100 | 13 | 226 | 6.4 | 14.5 | 0.00 | 1.24 | 0.56 | 79 | 1015.4 |
| 20260506134001 | 13 | 159 | 6.4 | 14.5 | 0.00 | 1.24 | 0.56 | 78 | 1020.0 |
| 20260506133600 | 13 | 238 | 6.4 | 11.3 | 0.00 | 1.24 | 0.56 | 80 | 1015.4 |
| 20260506133500 | 13 | 297 | 4.8 | 11.3 | 0.00 | 1.24 | 0.56 | 80 | 1020.0 |
| 20260506133103 | 13 | 303 | 3.2 | 11.3 | 0.00 | 1.24 | 0.56 | 81 | 1015.4 |
| 20260506133002 | 13 | 280 | 4.8 | 11.3 | 0.00 | 1.24 | 0.56 | 81 | 1020.0 |
| 20260506132600 | 13 | 257 | 6.4 | 11.3 | 0.00 | 1.24 | 0.56 | 81 | 1015.4 |
| 20260506132502 | 13 | 269 | 4.8 | 11.3 | 0.00 | 1.24 | 0.56 | 81 | 1020.0 |
| 20260506132100 | 13 | 227 | 4.8 | 14.5 | 0.00 | 1.24 | 0.56 | 81 | 1015.4 |
| 20260506132001 | 13 | 257 | 4.8 | 14.5 | 0.00 | 1.24 | 0.56 | 81 | 1019.9 |
| 20260506131603 | 13 | 260 | 3.2 | 14.5 | 0.00 | 1.24 | 0.56 | 82 | 1015.4 |
| 20260506131501 | 13 | 257 | 6.4 | 14.5 | 0.00 | 1.24 | 0.56 | 82 | 1019.9 |
| 20260506131104 | 13 | 217 | 4.8 | 14.5 | 0.00 | 1.24 | 0.56 | 83 | 1015.4 |
| 20260506131000 | 13 | 269 | 6.4 | 14.5 | 0.00 | 1.24 | 0.56 | 84 | 1019.9 |
| 20260506130601 | 13 | 290 | 4.8 | 14.5 | 0.00 | 1.24 | 0.56 | 83 | 1015.3 |
| 20260506130502 | 13 | 241 | 6.4 | 14.5 | 0.00 | 1.24 | 0.56 | 83 | 1019.9 |
| 20260506130007 | 13 | 267 | 6.4 | 17.7 | 0.00 | 1.24 | 0.56 | 83 | 1015.3 |
| 20260506130005 | 13 | 267 | 8.0 | 17.7 | 0.00 | 1.24 | 0.56 | 83 | 1019.9 |
| 20260506125559 | 13 | 266 | 8.0 | 17.7 | 0.00 | 1.42 | 0.56 | 83 | 1015.2 |
| 20260506125500 | 13 | 237 | 9.7 | 17.7 | 0.00 | 1.45 | 0.56 | 83 | 1019.8 |
| 20260506125100 | 13 | 245 | 6.4 | 17.7 | 0.00 | 1.42 | 0.56 | 82 | 1015.3 |
| 20260506124559 | 13 | 295 | 8.0 | 17.7 | 0.00 | 1.42 | 0.56 | 83 | 1015.2 |
| 20260506124502 | 13 | 195 | 8.0 | 17.7 | 0.00 | 1.45 | 0.56 | 84 | 1019.7 |
| 20260506124100 | 13 | 261 | 8.0 | 25.7 | 0.00 | 1.42 | 0.56 | 84 | 1015.1 |
| 20260506124001 | 13 | 252 | 11.3 | 25.7 | 0.00 | 1.45 | 0.56 | 84 | 1019.7 |
| 20260506123601 | 13 | 240 | 11.3 | 25.7 | 0.00 | 1.42 | 0.56 | 84 | 1015.3 |
| 20260506123501 | 13 | 269 | 12.9 | 25.7 | 0.00 | 1.45 | 0.56 | 84 | 1019.7 |
| 20260506123100 | 13 | 259 | 9.7 | 20.9 | 0.00 | 1.42 | 0.56 | 84 | 1015.2 |
| 20260506122601 | 13 | 241 | 8.0 | 20.9 | 0.00 | 1.42 | 0.56 | 84 | 1015.1 |
| 20260506122501 | 13 | 227 | 9.7 | 20.9 | 0.00 | 1.45 | 0.56 | 83 | 1019.8 |
| 20260506122100 | 13 | 282 | 9.7 | 17.7 | 0.00 | 1.42 | 0.56 | 83 | 1015.2 |
| 20260506122001 | 13 | 183 | 8.0 | 16.1 | 0.00 | 1.45 | 0.56 | 83 | 1019.8 |
| 20260506121600 | 13 | 247 | 8.0 | 17.7 | 0.00 | 1.42 | 0.56 | 82 | 1015.2 |
| 20260506121500 | 13 | 301 | 9.7 | 19.3 | 0.03 | 1.45 | 0.56 | 81 | 1019.7 |
| 20260506121100 | 13 | 271 | 8.0 | 19.3 | 0.05 | 1.42 | 0.56 | 81 | 1015.2 |
| 20260506121005 | 13 | 248 | 9.7 | 19.3 | 0.05 | 1.45 | 0.56 | 81 | 1019.7 |
| 20260506120600 | 13 | 253 | 8.0 | 19.3 | 0.05 | 1.42 | 0.56 | 81 | 1015.1 |
| 20260506120501 | 13 | 235 | 9.7 | 19.3 | 0.05 | 1.45 | 0.56 | 81 | 1019.7 |
| 20260506120100 | 13 | 223 | 8.0 | 22.5 | 0.05 | 1.42 | 0.56 | 82 | 1015.1 |
| 20260506120005 | 13 | 270 | 9.7 | 22.5 | 0.05 | 1.45 | 0.56 | 81 | 1019.7 |
| 20260506115502 | 14 | 243 | 8.0 | 20.9 | 0.05 | 1.42 | 0.56 | 81 | 1015.1 |
| 20260506115004 | 13 | 264 | 8.0 | 16.1 | 0.05 | 1.45 | 0.56 | 80 | 1019.6 |
| 20260506115000 | 13 | 264 | 6.4 | 16.1 | 0.05 | 1.42 | 0.56 | 80 | 1015.0 |
| 20260506114503 | 13 | 302 | 8.0 | 19.3 | 0.05 | 1.45 | 0.56 | 81 | 1019.6 |
| 20260506114003 | 13 | 234 | 8.0 | 19.3 | 0.05 | 1.42 | 0.56 | 81 | 1015.0 |
| 20260506113502 | 13 | 283 | 6.4 | 20.9 | 0.05 | 1.42 | 0.56 | 83 | 1015.0 |
| 20260506113002 | 13 | 293 | 11.3 | 20.9 | 0.05 | 1.45 | 0.56 | 83 | 1019.6 |
| 20260506112506 | 13 | 264 | 9.7 | 19.3 | 0.05 | 1.45 | 0.56 | 85 | 1019.6 |
| 20260506112504 | 13 | 269 | 8.0 | 19.3 | 0.05 | 1.42 | 0.56 | 85 | 1015.0 |
| 20260506112001 | 13 | 276 | 9.7 | 29.0 | 0.05 | 1.42 | 0.56 | 85 | 1015.0 |
| 20260506111501 | 13 | 268 | 14.5 | 29.0 | 0.00 | 1.42 | 0.51 | 81 | 1015.1 |
| 20260506111003 | 14 | 231 | 6.4 | 16.1 | 0.00 | 1.42 | 0.51 | 79 | 1015.0 |
| 20260506110501 | 14 | 241 | 4.8 | 12.9 | 0.00 | 1.42 | 0.51 | 79 | 1014.9 |
| 20260506110008 | 14 | 249 | 6.4 | 12.9 | 0.00 | 1.42 | 0.51 | 79 | 1014.9 |
| 20260506105502 | 14 | 223 | 8.0 | 19.3 | 0.00 | 1.42 | 0.51 | 78 | 1019.5 |
| 20260506105000 | 14 | 267 | 8.0 | 19.3 | 0.00 | 1.42 | 0.51 | 79 | 1014.9 |
| 20260506104504 | 14 | 259 | 8.0 | 16.1 | 0.00 | 1.42 | 0.51 | 78 | 1019.4 |
| 20260506104501 | 14 | 226 | 8.0 | 16.1 | 0.00 | 1.42 | 0.51 | 78 | 1014.8 |
| 20260506104002 | 14 | 281 | 8.0 | 20.9 | 0.00 | 1.42 | 0.51 | 78 | 1019.4 |
| 20260506103502 | 14 | 211 | 6.4 | 20.9 | 0.00 | 1.42 | 0.51 | 78 | 1019.4 |
| 20260506103005 | 14 | 259 | 8.0 | 22.5 | 0.00 | 1.42 | 0.51 | 81 | 1019.3 |
| 20260506103003 | 14 | 259 | 4.8 | 22.5 | 0.00 | 1.42 | 0.51 | 81 | 1014.8 |
| 20260506102502 | 13 | 299 | 6.4 | 22.5 | 0.00 | 1.42 | 0.51 | 81 | 1014.8 |
| 20260506102004 | 13 | 293 | 8.0 | 17.7 | 0.00 | 1.42 | 0.51 | 85 | 1019.4 |
| 20260506102002 | 13 | 293 | 6.4 | 17.7 | 0.00 | 1.42 | 0.51 | 85 | 1014.9 |
| 20260506101502 | 13 | 233 | 6.4 | 16.1 | 0.00 | 1.42 | 0.51 | 90 | 1014.8 |
| 20260506101003 | 12 | 288 | 4.8 | 14.5 | 0.00 | 1.42 | 0.51 | 92 | 1014.9 |
| 20260506100502 | 12 | 253 | 4.8 | 12.9 | 0.03 | 1.42 | 0.51 | 93 | 1019.4 |
| 20260506100008 | 12 | 288 | 3.2 | 12.9 | 0.05 | 1.42 | 0.51 | 93 | 1014.9 |
| 20260506100006 | 12 | 276 | 4.8 | 12.9 | 0.05 | 1.42 | 0.51 | 93 | 1019.4 |
| 20260506095502 | 12 | 149 | 4.8 | 12.9 | 0.05 | 1.42 | 0.51 | 94 | 1019.3 |
| 20260506095002 | 12 | 239 | 3.2 | 8.0 | 0.05 | 1.42 | 0.51 | 94 | 1019.4 |
| 20260506094505 | 12 | 221 | 3.2 | 12.9 | 0.08 | 1.42 | 0.51 | 94 | 1014.8 |
| 20260506094503 | 12 | 221 | 4.8 | 12.9 | 0.08 | 1.42 | 0.51 | 94 | 1019.3 |
| 20260506094002 | 12 | 221 | 6.4 | 12.9 | 0.10 | 1.42 | 0.51 | 93 | 1019.4 |
| 20260506093501 | 11 | 299 | 4.8 | 17.7 | 0.13 | 1.42 | 0.51 | 93 | 1014.8 |
| 20260506093002 | 11 | 228 | 8.0 | 17.7 | 0.13 | 1.42 | 0.51 | 93 | 1019.3 |
| 20260506092503 | 11 | 303 | 8.0 | 19.3 | 0.13 | 1.42 | 0.51 | 92 | 1019.4 |
| 20260506092004 | 11 | 307 | 8.0 | 20.9 | 0.13 | 1.42 | 0.51 | 92 | 1019.4 |
| 20260506092001 | 11 | 307 | 4.8 | 20.9 | 0.13 | 1.42 | 0.51 | 92 | 1014.8 |
| 20260506091502 | 11 | 248 | 11.3 | 20.9 | 0.15 | 1.42 | 0.51 | 90 | 1014.8 |
| 20260506091001 | 12 | 274 | 3.2 | 17.7 | 0.15 | 1.42 | 0.51 | 89 | 1014.8 |
| 20260506090503 | 13 | 216 | 4.8 | 17.7 | 0.15 | 1.40 | 0.51 | 82 | 1014.8 |
| 20260506090006 | 12 | 275 | 3.2 | 8.0 | 0.15 | 1.37 | 0.48 | 82 | 1014.6 |
| 20260506085501 | 12 | 296 | 3.2 | 9.7 | 0.18 | 1.40 | 0.46 | 82 | 1019.1 |
| 20260506085002 | 12 | 263 | 4.8 | 11.3 | 0.18 | 1.37 | 0.43 | 81 | 1019.1 |
| 20260506084502 | 12 | 304 | 4.8 | 11.3 | 0.15 | 1.37 | 0.43 | 82 | 1014.6 |
| 20260506084004 | 12 | 288 | 3.2 | 8.0 | 0.15 | 1.37 | 0.43 | 81 | 1019.1 |
| 20260506084002 | 12 | 288 | 3.2 | 8.0 | 0.15 | 1.37 | 0.43 | 81 | 1014.5 |
| 20260506083502 | 12 | 266 | 3.2 | 12.9 | 0.15 | 1.35 | 0.41 | 82 | 1014.5 |
| 20260506083003 | 12 | 264 | 6.4 | 16.1 | 0.15 | 1.35 | 0.41 | 81 | 1019.0 |
| 20260506083001 | 12 | 264 | 4.8 | 16.1 | 0.15 | 1.35 | 0.41 | 81 | 1014.5 |
| 20260506082502 | 12 | 249 | 8.0 | 17.7 | 0.15 | 1.35 | 0.41 | 81 | 1019.0 |
| 20260506082003 | 12 | 287 | 8.0 | 17.7 | 0.13 | 1.32 | 0.38 | 81 | 1019.0 |
| 20260506082001 | 12 | 287 | 9.7 | 17.7 | 0.13 | 1.32 | 0.38 | 81 | 1014.5 |
| 20260506081502 | 12 | 288 | 8.0 | 16.1 | 0.13 | 1.32 | 0.38 | 82 | 1019.0 |
| 20260506081005 | 12 | 297 | 4.8 | 16.1 | 0.13 | 1.32 | 0.38 | 81 | 1018.9 |
| 20260506081001 | 12 | 297 | 8.0 | 16.1 | 0.13 | 1.32 | 0.38 | 81 | 1014.4 |
| 20260506080503 | 12 | 269 | 3.2 | 9.7 | 0.08 | 1.27 | 0.33 | 81 | 1018.9 |
| 20260506073503 | 12 | 264 | 1.6 | 8.0 | 0.00 | 1.45 | 0.25 | 82 | 1018.7 |
| 20260506073002 | 12 | 200 | 0.0 | 4.8 | 0.00 | 1.45 | 0.25 | 82 | 1018.7 |
| 20260506072504 | 12 | 346 | 0.0 | 3.2 | 0.00 | 1.42 | 0.25 | 83 | 1014.2 |
| 20260506072502 | 12 | 346 | 0.0 | 3.2 | 0.00 | 1.45 | 0.25 | 83 | 1018.7 |
| 20260506072002 | 12 | 128 | 1.6 | 4.8 | 0.00 | 1.45 | 0.25 | 83 | 1018.7 |
| 20260506071502 | 12 | 108 | 0.0 | 4.8 | 0.00 | 1.42 | 0.25 | 83 | 1014.2 |
| 20260506071003 | 12 | 145 | 1.6 | 4.8 | 0.00 | 1.45 | 0.25 | 83 | 1018.7 |
| 20260506071000 | 12 | 145 | 0.0 | 4.8 | 0.00 | 1.42 | 0.25 | 83 | 1014.1 |
| 20260506070502 | 12 | 117 | 1.6 | 4.8 | 0.00 | 1.45 | 0.25 | 83 | 1018.5 |
| 20260506062501 | 12 | 122 | 1.6 | 4.8 | 0.05 | 1.83 | 0.25 | 87 | 1018.4 |
| 20260506062002 | 12 | 132 | 0.0 | 6.4 | 0.05 | 1.83 | 0.25 | 88 | 1013.9 |
| 20260506061503 | 11 | 71 | 3.2 | 8.0 | 0.05 | 1.83 | 0.25 | 87 | 1018.3 |
| 20260506061501 | 11 | 82 | 1.6 | 8.0 | 0.05 | 1.83 | 0.25 | 87 | 1013.8 |
| 20260506061002 | 11 | 68 | 3.2 | 8.0 | 0.10 | 1.83 | 0.25 | 88 | 1018.4 |
| 20260506060501 | 11 | 131 | 3.2 | 6.4 | 0.13 | 1.83 | 0.25 | 89 | 1018.4 |
| 20260506051103 | 11 | 97 | 0.0 | 3.2 | 0.15 | 1.75 | 0.15 | 86 | 1013.6 |
| 20260506051001 | 11 | 110 | 0.0 | 1.6 | 0.15 | 1.75 | 0.15 | 86 | 1018.2 |
| 20260506050501 | 11 | 110 | 0.0 | 3.2 | 0.13 | 1.75 | 0.15 | 85 | 1013.6 |
| 20260506045004 | 11 | 143 | 1.6 | 8.0 | 0.05 | 1.65 | 0.05 | 84 | 1018.0 |
| 20260506045002 | 11 | 143 | 0.0 | 8.0 | 0.05 | 1.65 | 0.05 | 84 | 1013.5 |
| 20260506044501 | 12 | 250 | 1.6 | 6.4 | 0.05 | 1.65 | 0.05 | 83 | 1013.5 |
| 20260506044002 | 12 | 261 | 3.2 | 8.0 | 0.03 | 1.65 | 0.05 | 83 | 1018.1 |
| 20260506043502 | 12 | 228 | 3.2 | 9.7 | 0.03 | 1.65 | 0.05 | 83 | 1018.1 |
| 20260506043003 | 12 | 237 | 4.8 | 14.5 | 0.00 | 1.63 | 0.03 | 83 | 1013.5 |
| 20260506042503 | 11 | 278 | 6.4 | 14.5 | 0.00 | 1.63 | 0.03 | 83 | 1013.5 |
| 20260506042100 | 11 | 293 | 1.6 | 6.4 | 0.00 | 1.63 | 0.03 | 84 | 1013.5 |
| 20260506042003 | 11 | 198 | 0.0 | 3.2 | 0.00 | 1.63 | 0.03 | 85 | 1018.1 |
| 20260506041502 | 11 | 91 | 0.0 | 1.6 | 0.00 | 1.63 | 0.03 | 84 | 1018.1 |
| 20260506041100 | 11 | 165 | 0.0 | 3.2 | 0.00 | 1.63 | 0.03 | 84 | 1013.5 |
| 20260506041002 | 11 | 165 | 0.0 | 3.2 | 0.03 | 1.63 | 0.03 | 84 | 1018.0 |
| 20260506041000 | 11 | 165 | 0.0 | 3.2 | 0.03 | 1.63 | 0.03 | 84 | 1013.5 |
| 20260506040501 | 11 | 78 | 0.0 | 4.8 | 0.03 | 1.63 | 0.03 | 84 | 1018.0 |
| 20260506040002 | 11 | 87 | 0.0 | 4.8 | 0.03 | 1.63 | 0.03 | 84 | 1013.5 |
| 20260506035501 | 11 | 66 | 1.6 | 3.2 | 0.03 | 1.65 | 0.03 | 84 | 1018.0 |
| 20260506035002 | 11 | 86 | 1.6 | 4.8 | 0.03 | 1.65 | 0.03 | 84 | 1018.1 |
| 20260506034606 | 11 | 77 | 0.0 | 4.8 | 0.03 | 1.65 | 0.03 | 85 | 1013.5 |
| 20260506034502 | 11 | 66 | 1.6 | 4.8 | 0.03 | 1.65 | 0.03 | 85 | 1018.1 |
| 20260506034002 | 11 | 87 | 1.6 | 4.8 | 0.03 | 1.65 | 0.03 | 85 | 1018.1 |
| 20260506033501 | 11 | 65 | 1.6 | 4.8 | 0.03 | 1.65 | 0.03 | 84 | 1013.6 |
| 20260506033100 | 11 | 66 | 0.0 | 11.3 | 0.03 | 1.65 | 0.03 | 84 | 1013.6 |
| 20260506033001 | 11 | 75 | 3.2 | 11.3 | 0.03 | 1.65 | 0.03 | 84 | 1018.2 |
| 20260506032604 | 11 | 98 | 3.2 | 11.3 | 0.03 | 1.65 | 0.03 | 84 | 1013.6 |
| 20260506032501 | 11 | 77 | 3.2 | 11.3 | 0.03 | 1.65 | 0.03 | 84 | 1018.1 |
| 20260506032100 | 11 | 100 | 0.0 | 8.0 | 0.03 | 1.65 | 0.03 | 84 | 1013.6 |
| 20260506032003 | 11 | 101 | 0.0 | 8.0 | 0.03 | 1.65 | 0.03 | 84 | 1013.6 |
| 20260506031600 | 11 | 72 | 0.0 | 8.0 | 0.03 | 1.65 | 0.03 | 84 | 1013.5 |
| 20260506031501 | 11 | 73 | 3.2 | 8.0 | 0.03 | 1.65 | 0.03 | 84 | 1018.1 |
| 20260506031101 | 11 | 84 | 4.8 | 8.0 | 0.00 | 1.63 | 0.00 | 83 | 1013.6 |
| 20260506031002 | 11 | 68 | 3.2 | 8.0 | 0.00 | 1.63 | 0.00 | 83 | 1018.1 |
| 20260506030602 | 11 | 58 | 3.2 | 6.4 | 0.00 | 1.63 | 0.00 | 83 | 1013.5 |
| 20260506030005 | 11 | 59 | 3.2 | 6.4 | 0.00 | 1.63 | 0.00 | 83 | 1018.1 |
| 20260506030002 | 11 | 59 | 3.2 | 6.4 | 0.00 | 1.63 | 0.00 | 83 | 1013.6 |
| 20260506025600 | 11 | 130 | 1.6 | 6.4 | 0.00 | 1.63 | 0.00 | 83 | 1013.5 |
| 20260506025501 | 11 | 70 | 3.2 | 8.0 | 0.00 | 1.63 | 0.00 | 83 | 1018.0 |
| 20260506025100 | 11 | 108 | 0.0 | 8.0 | 0.00 | 1.63 | 0.00 | 83 | 1013.5 |
| 20260506025001 | 11 | 124 | 3.2 | 8.0 | 0.00 | 1.63 | 0.00 | 83 | 1018.1 |
| 20260506024601 | 11 | 68 | 3.2 | 8.0 | 0.00 | 1.63 | 0.00 | 83 | 1013.6 |
| 20260506024503 | 11 | 102 | 1.6 | 8.0 | 0.00 | 1.63 | 0.00 | 83 | 1013.6 |
| 20260506024100 | 11 | 123 | 0.0 | 6.4 | 0.00 | 1.63 | 0.00 | 83 | 1013.6 |
| 20260506024002 | 11 | 127 | 3.2 | 6.4 | 0.00 | 1.63 | 0.00 | 83 | 1018.1 |
| 20260506023601 | 11 | 86 | 3.2 | 6.4 | 0.00 | 1.63 | 0.00 | 83 | 1013.6 |
| 20260506023501 | 11 | 74 | 3.2 | 6.4 | 0.00 | 1.63 | 0.00 | 83 | 1018.1 |
| 20260506023103 | 11 | 74 | 1.6 | 8.0 | 0.00 | 1.63 | 0.00 | 84 | 1013.6 |
| 20260506023001 | 11 | 66 | 3.2 | 8.0 | 0.00 | 1.63 | 0.00 | 84 | 1018.2 |
| 20260506022600 | 11 | 117 | 3.2 | 8.0 | 0.00 | 1.63 | 0.00 | 83 | 1013.6 |
| 20260506022503 | 11 | 87 | 4.8 | 8.0 | 0.00 | 1.63 | 0.00 | 83 | 1018.2 |
| 20260506022100 | 11 | 75 | 3.2 | 6.4 | 0.00 | 1.63 | 0.00 | 83 | 1013.7 |
| 20260506022001 | 11 | 89 | 3.2 | 6.4 | 0.00 | 1.63 | 0.00 | 84 | 1018.2 |
| 20260506021607 | 11 | 128 | 1.6 | 6.4 | 0.00 | 1.63 | 0.00 | 84 | 1013.7 |
| 20260506021503 | 11 | 109 | 3.2 | 6.4 | 0.00 | 1.63 | 0.00 | 83 | 1018.2 |
| 20260506021100 | 11 | 86 | 1.6 | 6.4 | 0.00 | 1.63 | 0.00 | 83 | 1013.6 |
| 20260506021002 | 11 | 65 | 1.6 | 6.4 | 0.00 | 1.63 | 0.00 | 83 | 1018.1 |
| 20260506020600 | 11 | 115 | 1.6 | 6.4 | 0.00 | 1.63 | 0.00 | 83 | 1013.6 |
| 20260506020005 | 11 | 108 | 0.0 | 9.7 | 0.00 | 1.63 | 0.00 | 83 | 1013.7 |
| 20260506015604 | 11 | 76 | 1.6 | 9.7 | 0.00 | 1.65 | 0.00 | 83 | 1013.6 |
| 20260506015502 | 11 | 79 | 1.6 | 9.7 | 0.00 | 1.65 | 0.00 | 83 | 1018.2 |
| 20260506015100 | 11 | 83 | 3.2 | 8.0 | 0.00 | 1.65 | 0.00 | 84 | 1013.7 |
| 20260506015001 | 11 | 95 | 3.2 | 8.0 | 0.00 | 1.65 | 0.00 | 83 | 1018.2 |
| 20260506014600 | 11 | 115 | 1.6 | 8.0 | 0.00 | 1.65 | 0.00 | 84 | 1013.8 |
| 20260506014501 | 11 | 136 | 3.2 | 8.0 | 0.00 | 1.65 | 0.00 | 84 | 1018.2 |
| 20260506014103 | 11 | 110 | 1.6 | 8.0 | 0.00 | 1.65 | 0.00 | 84 | 1013.7 |
| 20260506014001 | 11 | 69 | 3.2 | 8.0 | 0.00 | 1.65 | 0.00 | 85 | 1018.3 |
| 20260506013600 | 11 | 78 | 1.6 | 9.7 | 0.00 | 1.65 | 0.00 | 85 | 1013.7 |
| 20260506013502 | 11 | 68 | 3.2 | 9.7 | 0.00 | 1.65 | 0.00 | 85 | 1018.2 |
| 20260506013107 | 11 | 97 | 3.2 | 9.7 | 0.00 | 1.65 | 0.00 | 86 | 1013.7 |
| 20260506013001 | 11 | 86 | 4.8 | 9.7 | 0.00 | 1.65 | 0.00 | 86 | 1018.3 |
| 20260506012600 | 11 | 92 | 3.2 | 9.7 | 0.00 | 1.65 | 0.00 | 86 | 1013.7 |
| 20260506012501 | 11 | 98 | 4.8 | 9.7 | 0.00 | 1.65 | 0.00 | 86 | 1018.3 |
| 20260506012100 | 11 | 91 | 4.8 | 8.0 | 0.00 | 1.65 | 0.00 | 86 | 1013.9 |
| 20260506012001 | 11 | 75 | 3.2 | 8.0 | 0.00 | 1.65 | 0.00 | 86 | 1018.4 |
| 20260506011608 | 11 | 49 | 3.2 | 6.4 | 0.00 | 1.65 | 0.00 | 85 | 1013.8 |
| 20260506011103 | 11 | 72 | 1.6 | 4.8 | 0.00 | 1.65 | 0.00 | 85 | 1013.9 |
| 20260506011003 | 11 | 82 | 1.6 | 4.8 | 0.00 | 1.65 | 0.00 | 85 | 1018.5 |
| 20260506010600 | 11 | 79 | 1.6 | 4.8 | 0.00 | 1.65 | 0.00 | 84 | 1013.9 |
| 20260506010500 | 11 | 87 | 1.6 | 4.8 | 0.00 | 1.65 | 0.00 | 84 | 1018.5 |
| 20260506010100 | 11 | 115 | 1.6 | 4.8 | 0.00 | 1.65 | 0.00 | 84 | 1014.0 |
| 20260506010004 | 11 | 68 | 1.6 | 4.8 | 0.00 | 1.65 | 0.00 | 84 | 1018.5 |
| 20260506010002 | 11 | 68 | 0.0 | 4.8 | 0.00 | 1.65 | 0.00 | 84 | 1014.0 |
| 20260506005559 | 11 | 77 | 1.6 | 4.8 | 0.00 | 1.65 | 0.00 | 85 | 1014.0 |
| 20260506005501 | 11 | 99 | 1.6 | 4.8 | 0.00 | 1.65 | 0.00 | 84 | 1018.5 |
| 20260506005100 | 11 | 104 | 1.6 | 3.2 | 0.00 | 1.65 | 0.00 | 85 | 1014.1 |
| 20260506005003 | 11 | 68 | 1.6 | 3.2 | 0.00 | 1.65 | 0.00 | 85 | 1018.6 |
| 20260506004603 | 11 | 77 | 0.0 | 4.8 | 0.00 | 1.65 | 0.00 | 85 | 1014.1 |
| 20260506004501 | 11 | 76 | 1.6 | 4.8 | 0.00 | 1.65 | 0.00 | 85 | 1018.7 |
| 20260506004100 | 11 | 90 | 1.6 | 4.8 | 0.00 | 1.65 | 0.00 | 85 | 1014.2 |
| 20260506004001 | 11 | 78 | 1.6 | 4.8 | 0.00 | 1.65 | 0.00 | 85 | 1018.8 |
| 20260506003604 | 11 | 72 | 1.6 | 4.8 | 0.00 | 1.65 | 0.00 | 85 | 1014.3 |
| 20260506003501 | 11 | 75 | 1.6 | 4.8 | 0.00 | 1.65 | 0.00 | 85 | 1018.8 |
| 20260506003100 | 11 | 96 | 1.6 | 6.4 | 0.00 | 1.65 | 0.00 | 85 | 1014.3 |
| 20260506003003 | 11 | 81 | 1.6 | 6.4 | 0.00 | 1.65 | 0.00 | 85 | 1018.9 |
| 20260506002600 | 11 | 100 | 1.6 | 6.4 | 0.00 | 1.65 | 0.00 | 85 | 1014.4 |
| 20260506002501 | 11 | 84 | 3.2 | 8.0 | 0.00 | 1.65 | 0.00 | 85 | 1018.9 |
| 20260506002100 | 11 | 71 | 1.6 | 8.0 | 0.00 | 1.65 | 0.00 | 85 | 1014.4 |
| 20260506002002 | 11 | 119 | 3.2 | 8.0 | 0.00 | 1.65 | 0.00 | 85 | 1018.9 |
| 20260506001603 | 11 | 72 | 1.6 | 9.7 | 0.00 | 1.65 | 0.00 | 85 | 1014.4 |
| 20260506001501 | 11 | 99 | 4.8 | 9.7 | 0.00 | 1.65 | 0.00 | 85 | 1019.0 |
| 20260506001100 | 11 | 116 | 4.8 | 9.7 | 0.00 | 1.65 | 0.00 | 85 | 1014.4 |
| 20260506001001 | 11 | 53 | 4.8 | 9.7 | 0.00 | 1.65 | 0.00 | 85 | 1019.0 |
| 20260506000600 | 11 | 62 | 4.8 | 11.3 | 0.00 | 1.65 | 0.00 | 86 | 1014.4 |
| 20260506000501 | 11 | 68 | 4.8 | 11.3 | 0.00 | 1.65 | 0.00 | 86 | 1018.9 |
| 20260506000100 | 11 | 74 | 4.8 | 11.3 | 0.00 | 1.65 | 0.00 | 86 | 1014.4 |
| 20260506000005 | 11 | 65 | 4.8 | 9.7 | 0.00 | 1.65 | 0.00 | 86 | 1018.9 |
| 20260506000002 | 11 | 65 | 3.2 | 9.7 | 0.00 | 1.65 | 0.00 | 86 | 1014.4 |
| 20260505235600 | 11 | 88 | 4.8 | 8.0 | 0.00 | 1.68 | 0.00 | 86 | 1014.3 |
| 20260505235503 | 11 | 75 | 3.2 | 8.0 | 0.00 | 1.68 | 0.00 | 86 | 1018.8 |
| 20260505235100 | 11 | 77 | 3.2 | 6.4 | 0.00 | 1.68 | 0.00 | 86 | 1014.4 |
| 20260505235001 | 11 | 82 | 3.2 | 6.4 | 0.00 | 1.68 | 0.00 | 86 | 1018.9 |
| 20260505234609 | 11 | 89 | 3.2 | 6.4 | 0.00 | 1.68 | 0.00 | 86 | 1014.5 |
| 20260505234100 | 11 | 70 | 1.6 | 6.4 | 0.00 | 1.68 | 0.00 | 86 | 1014.5 |
| 20260505234001 | 11 | 77 | 3.2 | 6.4 | 0.00 | 1.68 | 0.00 | 86 | 1019.1 |
| 20260505233600 | 11 | 63 | 1.6 | 6.4 | 0.00 | 1.68 | 0.00 | 86 | 1014.6 |
| 20260505233100 | 11 | 76 | 1.6 | 4.8 | 0.00 | 1.68 | 0.00 | 86 | 1014.6 |
| 20260505233002 | 11 | 69 | 1.6 | 4.8 | 0.00 | 1.68 | 0.00 | 86 | 1019.2 |
| 20260505232600 | 11 | 124 | 1.6 | 6.4 | 0.00 | 1.68 | 0.00 | 86 | 1014.6 |
| 20260505232503 | 11 | 74 | 1.6 | 6.4 | 0.00 | 1.68 | 0.00 | 86 | 1019.1 |
| 20260505232100 | 11 | 113 | 0.0 | 6.4 | 0.00 | 1.68 | 0.00 | 86 | 1014.5 |
| 20260505232002 | 11 | 115 | 3.2 | 6.4 | 0.00 | 1.68 | 0.00 | 85 | 1019.1 |
| 20260505231608 | 11 | 106 | 1.6 | 4.8 | 0.00 | 1.68 | 0.00 | 85 | 1014.5 |
| 20260505231503 | 11 | 116 | 3.2 | 4.8 | 0.00 | 1.68 | 0.00 | 84 | 1019.0 |
| 20260505231100 | 11 | 87 | 1.6 | 4.8 | 0.00 | 1.68 | 0.00 | 84 | 1014.5 |
| 20260505231001 | 11 | 99 | 1.6 | 3.2 | 0.00 | 1.68 | 0.00 | 84 | 1019.0 |
| 20260505230603 | 11 | 90 | 1.6 | 4.8 | 0.00 | 1.68 | 0.00 | 83 | 1014.5 |
| 20260505230100 | 11 | 62 | 1.6 | 4.8 | 0.00 | 1.68 | 0.00 | 84 | 1014.4 |
| 20260505230004 | 11 | 92 | 1.6 | 4.8 | 0.00 | 1.68 | 0.00 | 84 | 1019.0 |
| 20260505225601 | 11 | 113 | 0.0 | 4.8 | 0.00 | 1.93 | 0.00 | 83 | 1014.5 |
| 20260505225502 | 11 | 120 | 1.6 | 4.8 | 0.00 | 1.93 | 0.00 | 83 | 1019.0 |
| 20260505225100 | 11 | 126 | 1.6 | 4.8 | 0.00 | 1.93 | 0.00 | 84 | 1014.5 |
| 20260505225001 | 11 | 81 | 1.6 | 4.8 | 0.00 | 1.93 | 0.00 | 84 | 1019.0 |
| 20260505224600 | 11 | 112 | 1.6 | 4.8 | 0.00 | 1.93 | 0.00 | 84 | 1014.5 |
| 20260505224501 | 11 | 91 | 1.6 | 4.8 | 0.00 | 1.93 | 0.00 | 84 | 1019.0 |
| 20260505224100 | 11 | 69 | 1.6 | 4.8 | 0.00 | 1.93 | 0.00 | 84 | 1014.6 |
| 20260505224001 | 11 | 79 | 1.6 | 4.8 | 0.00 | 1.93 | 0.00 | 84 | 1019.1 |
| 20260505223601 | 11 | 100 | 0.0 | 4.8 | 0.00 | 1.93 | 0.00 | 84 | 1014.6 |
| 20260505223107 | 11 | 76 | 0.0 | 3.2 | 0.00 | 1.93 | 0.00 | 84 | 1014.6 |
| 20260505223001 | 11 | 99 | 0.0 | 3.2 | 0.00 | 1.93 | 0.00 | 84 | 1019.1 |
| 20260505222602 | 11 | 189 | 0.0 | 3.2 | 0.00 | 1.93 | 0.00 | 84 | 1014.6 |
| 20260505222501 | 11 | 215 | 0.0 | 3.2 | 0.00 | 1.93 | 0.00 | 84 | 1019.1 |
| 20260505222103 | 11 | 157 | 0.0 | 3.2 | 0.00 | 1.93 | 0.00 | 84 | 1014.6 |
| 20260505222001 | 11 | 169 | 1.6 | 4.8 | 0.00 | 1.93 | 0.00 | 84 | 1019.1 |
| 20260505221602 | 11 | 205 | 0.0 | 4.8 | 0.00 | 1.93 | 0.00 | 83 | 1014.6 |
| 20260505221501 | 11 | 144 | 0.0 | 4.8 | 0.00 | 1.93 | 0.00 | 83 | 1019.2 |
| 20260505221059 | 11 | 194 | 0.0 | 3.2 | 0.00 | 1.93 | 0.00 | 83 | 1014.7 |
| 20260505221003 | 11 | 257 | 0.0 | 4.8 | 0.00 | 1.93 | 0.00 | 84 | 1019.3 |
| 20260505220600 | 11 | 125 | 0.0 | 4.8 | 0.00 | 1.93 | 0.00 | 83 | 1014.7 |
| 20260505220100 | 11 | 340 | 0.0 | 1.6 | 0.00 | 1.93 | 0.00 | 83 | 1014.8 |
| 20260505220006 | 11 | 340 | 0.0 | 1.6 | 0.00 | 1.93 | 0.00 | 83 | 1019.4 |
| 20260505220004 | 11 | 340 | 0.0 | 1.6 | 0.00 | 1.93 | 0.00 | 83 | 1014.8 |
| 20260505215600 | 11 | 262 | 0.0 | 4.8 | 0.00 | 1.93 | 1.93 | 83 | 1014.8 |
| 20260505215501 | 11 | 262 | 1.6 | 4.8 | 0.00 | 1.93 | 1.93 | 83 | 1019.4 |
| 20260505215102 | 11 | 221 | 1.6 | 4.8 | 0.00 | 1.93 | 1.93 | 83 | 1014.8 |
| 20260505215002 | 11 | 162 | 1.6 | 4.8 | 0.00 | 1.93 | 1.93 | 83 | 1019.4 |
| 20260505214621 | 11 | 136 | 0.0 | 4.8 | 0.00 | 1.93 | 1.93 | 83 | 1014.8 |
| 20260505214500 | 11 | 216 | 1.6 | 4.8 | 0.00 | 1.93 | 1.93 | 83 | 1019.4 |
| 20260505214100 | 11 | 227 | 0.0 | 6.4 | 0.00 | 1.93 | 1.93 | 83 | 1014.8 |
| 20260505213603 | 11 | 91 | 1.6 | 6.4 | 0.00 | 1.93 | 1.93 | 83 | 1014.8 |
| 20260505213501 | 11 | 207 | 1.6 | 6.4 | 0.00 | 1.93 | 1.93 | 83 | 1019.4 |
| 20260505213105 | 11 | 129 | 0.0 | 4.8 | 0.00 | 1.93 | 1.93 | 83 | 1014.9 |
| 20260505213003 | 11 | 153 | 1.6 | 4.8 | 0.00 | 1.93 | 1.93 | 83 | 1019.5 |
| 20260505212601 | 11 | 110 | 0.0 | 4.8 | 0.00 | 1.93 | 1.93 | 83 | 1014.9 |
| 20260505212501 | 11 | 221 | 1.6 | 4.8 | 0.00 | 1.93 | 1.93 | 83 | 1019.4 |
| 20260505212100 | 11 | 70 | 0.0 | 4.8 | 0.00 | 1.93 | 1.93 | 84 | 1014.9 |
| 20260505212003 | 11 | 103 | 1.6 | 4.8 | 0.00 | 1.93 | 1.93 | 84 | 1019.5 |
| 20260505211608 | 11 | 101 | 1.6 | 4.8 | 0.00 | 1.93 | 1.93 | 84 | 1014.9 |
| 20260505211501 | 11 | 117 | 1.6 | 8.0 | 0.00 | 1.93 | 1.93 | 83 | 1019.5 |
| 20260505211100 | 11 | 132 | 0.0 | 8.0 | 0.00 | 1.93 | 1.93 | 84 | 1014.9 |
| 20260505211001 | 11 | 94 | 1.6 | 8.0 | 0.00 | 1.93 | 1.93 | 84 | 1019.5 |
| 20260505210559 | 11 | 63 | 1.6 | 6.4 | 0.00 | 1.93 | 1.93 | 84 | 1015.0 |
| 20260505210500 | 11 | 58 | 1.6 | 6.4 | 0.00 | 1.93 | 1.93 | 84 | 1019.5 |
| 20260505210100 | 11 | 115 | 0.0 | 6.4 | 0.00 | 1.93 | 1.93 | 84 | 1015.0 |
| 20260505210002 | 11 | 121 | 1.6 | 6.4 | 0.00 | 1.93 | 1.93 | 84 | 1015.0 |
| 20260505205600 | 11 | 76 | 1.6 | 4.8 | 0.00 | 2.26 | 1.93 | 84 | 1015.0 |
| 20260505205501 | 11 | 91 | 1.6 | 4.8 | 0.00 | 2.26 | 1.93 | 84 | 1019.5 |
| 20260505205100 | 11 | 113 | 1.6 | 4.8 | 0.00 | 2.26 | 1.93 | 85 | 1014.9 |
| 20260505204600 | 11 | 183 | 0.0 | 4.8 | 0.00 | 2.26 | 1.93 | 85 | 1014.9 |
| 20260505204502 | 11 | 115 | 1.6 | 4.8 | 0.00 | 2.26 | 1.93 | 84 | 1019.5 |
| 20260505204100 | 11 | 70 | 0.0 | 4.8 | 0.00 | 2.26 | 1.93 | 85 | 1014.9 |
| 20260505203601 | 11 | 105 | 0.0 | 4.8 | 0.00 | 2.26 | 1.93 | 84 | 1014.8 |
| 20260505203100 | 11 | 94 | 0.0 | 8.0 | 0.03 | 2.26 | 1.93 | 84 | 1014.8 |
| 20260505202604 | 12 | 120 | 1.6 | 8.0 | 0.03 | 2.26 | 1.93 | 84 | 1014.8 |
| 20260505202059 | 12 | 154 | 0.0 | 3.2 | 0.03 | 2.26 | 1.93 | 83 | 1014.8 |
| 20260505202001 | 12 | 189 | 0.0 | 3.2 | 0.03 | 2.26 | 1.93 | 83 | 1019.4 |
| 20260505201600 | 12 | 111 | 0.0 | 3.2 | 0.03 | 2.26 | 1.93 | 83 | 1014.8 |
| 20260505201501 | 12 | 110 | 0.0 | 3.2 | 0.03 | 2.26 | 1.93 | 83 | 1019.3 |
| 20260505201100 | 12 | 135 | 0.0 | 3.2 | 0.03 | 2.26 | 1.93 | 82 | 1014.6 |
| 20260505200600 | 12 | 127 | 0.0 | 6.4 | 0.03 | 2.26 | 1.93 | 82 | 1014.7 |
| 20260505200501 | 12 | 131 | 1.6 | 8.0 | 0.03 | 2.26 | 1.93 | 82 | 1019.2 |
| 20260505200107 | 12 | 266 | 0.0 | 11.3 | 0.03 | 2.26 | 1.93 | 82 | 1014.6 |
| 20260505200005 | 12 | 266 | 3.2 | 11.3 | 0.03 | 2.26 | 1.93 | 81 | 1019.2 |
| 20260505200002 | 12 | 266 | 1.6 | 11.3 | 0.03 | 2.26 | 1.93 | 81 | 1014.6 |
| 20260505195603 | 12 | 231 | 3.2 | 11.3 | 0.03 | 2.39 | 1.93 | 81 | 1014.7 |
| 20260505195501 | 12 | 251 | 1.6 | 11.3 | 0.03 | 2.39 | 1.93 | 81 | 1019.2 |
| 20260505195100 | 12 | 247 | 1.6 | 9.7 | 0.03 | 2.39 | 1.93 | 81 | 1014.6 |
| 20260505195005 | 12 | 163 | 3.2 | 9.7 | 0.03 | 2.39 | 1.93 | 81 | 1019.1 |
| 20260505194600 | 12 | 288 | 3.2 | 9.7 | 0.03 | 2.39 | 1.93 | 81 | 1014.6 |
| 20260505194501 | 12 | 261 | 3.2 | 9.7 | 0.03 | 2.39 | 1.93 | 81 | 1019.2 |
| 20260505194100 | 12 | 262 | 0.0 | 9.7 | 0.03 | 2.39 | 1.93 | 82 | 1014.6 |
| 20260505194001 | 12 | 262 | 3.2 | 9.7 | 0.03 | 2.39 | 1.93 | 82 | 1019.1 |
| 20260505193603 | 12 | 281 | 4.8 | 11.3 | 0.03 | 2.39 | 1.93 | 82 | 1014.5 |
| 20260505193501 | 12 | 274 | 4.8 | 11.3 | 0.03 | 2.39 | 1.93 | 82 | 1019.0 |
| 20260505193101 | 12 | 276 | 3.2 | 11.3 | 0.05 | 2.36 | 1.91 | 82 | 1014.6 |
| 20260505193004 | 12 | 284 | 4.8 | 11.3 | 0.05 | 2.36 | 1.91 | 82 | 1019.1 |
| 20260505192600 | 12 | 289 | 3.2 | 19.3 | 0.13 | 2.36 | 1.91 | 81 | 1014.5 |
| 20260505192501 | 12 | 255 | 6.4 | 19.3 | 0.13 | 2.36 | 1.91 | 81 | 1019.0 |
| 20260505192100 | 12 | 243 | 6.4 | 24.1 | 0.13 | 2.36 | 1.91 | 81 | 1014.5 |
| 20260505191600 | 12 | 245 | 8.0 | 24.1 | 0.13 | 2.36 | 1.91 | 81 | 1014.4 |
| 20260505191503 | 12 | 319 | 11.3 | 24.1 | 0.13 | 2.36 | 1.91 | 81 | 1019.0 |
| 20260505191100 | 12 | 269 | 8.0 | 24.1 | 0.13 | 2.36 | 1.91 | 82 | 1014.3 |
| 20260505191001 | 12 | 276 | 9.7 | 24.1 | 0.13 | 2.36 | 1.91 | 82 | 1018.9 |
| 20260505190559 | 12 | 240 | 8.0 | 17.7 | 0.13 | 2.36 | 1.91 | 83 | 1014.3 |
| 20260505190501 | 12 | 264 | 6.4 | 17.7 | 0.13 | 2.36 | 1.91 | 83 | 1018.8 |
| 20260505190100 | 12 | 266 | 3.2 | 14.5 | 0.13 | 2.36 | 1.91 | 85 | 1014.3 |
| 20260505190005 | 12 | 261 | 6.4 | 14.5 | 0.13 | 2.36 | 1.91 | 85 | 1018.8 |
| 20260505190003 | 12 | 261 | 4.8 | 14.5 | 0.13 | 2.36 | 1.91 | 85 | 1014.3 |
| 20260505185600 | 12 | 260 | 4.8 | 16.1 | 0.13 | 2.36 | 1.91 | 85 | 1014.3 |
| 20260505185501 | 12 | 259 | 6.4 | 16.1 | 0.13 | 2.36 | 1.91 | 85 | 1018.9 |
| 20260505185100 | 12 | 257 | 4.8 | 17.7 | 0.13 | 2.36 | 1.91 | 85 | 1014.3 |
| 20260505185003 | 12 | 225 | 6.4 | 17.7 | 0.13 | 2.36 | 1.91 | 85 | 1014.3 |
| 20260505184600 | 12 | 256 | 8.0 | 17.7 | 0.13 | 2.36 | 1.91 | 85 | 1014.3 |
| 20260505184100 | 12 | 268 | 3.2 | 9.7 | 0.13 | 2.36 | 1.91 | 86 | 1014.2 |
| 20260505184002 | 12 | 261 | 1.6 | 6.4 | 0.13 | 2.36 | 1.91 | 86 | 1018.7 |
| 20260505183559 | 12 | 97 | 1.6 | 9.7 | 0.13 | 2.36 | 1.91 | 85 | 1014.2 |
| 20260505183501 | 13 | 316 | 3.2 | 9.7 | 0.13 | 2.36 | 1.91 | 85 | 1018.7 |
| 20260505183107 | 13 | 274 | 1.6 | 9.7 | 0.08 | 2.31 | 1.85 | 84 | 1014.2 |
| 20260505183001 | 13 | 283 | 4.8 | 9.7 | 0.05 | 2.29 | 1.83 | 83 | 1018.7 |
| 20260505182601 | 13 | 291 | 3.2 | 8.0 | 0.00 | 2.24 | 1.78 | 83 | 1014.1 |
| 20260505182501 | 13 | 282 | 3.2 | 8.0 | 0.00 | 2.24 | 1.78 | 83 | 1018.6 |
| 20260505182102 | 13 | 277 | 3.2 | 8.0 | 0.00 | 2.24 | 1.78 | 82 | 1014.0 |
| 20260505181600 | 13 | 272 | 1.6 | 8.0 | 0.00 | 2.24 | 1.78 | 83 | 1014.0 |
| 20260505181501 | 13 | 266 | 4.8 | 9.7 | 0.00 | 2.24 | 1.78 | 84 | 1018.4 |
| 20260505181100 | 13 | 292 | 3.2 | 12.9 | 0.00 | 2.24 | 1.78 | 83 | 1014.0 |
| 20260505181001 | 13 | 266 | 4.8 | 12.9 | 0.00 | 2.24 | 1.78 | 83 | 1018.5 |
| 20260505180559 | 13 | 293 | 4.8 | 12.9 | 0.00 | 2.24 | 1.78 | 82 | 1014.0 |
| 20260505180501 | 13 | 209 | 3.2 | 12.9 | 0.00 | 2.24 | 1.78 | 83 | 1018.5 |
| 20260505180105 | 13 | 254 | 1.6 | 12.9 | 0.00 | 2.24 | 1.78 | 84 | 1013.9 |
| 20260505180005 | 13 | 153 | 4.8 | 12.9 | 0.00 | 2.24 | 1.78 | 84 | 1018.4 |
| 20260505180003 | 13 | 153 | 3.2 | 12.9 | 0.00 | 2.24 | 1.78 | 84 | 1013.9 |
| 20260505175600 | 13 | 274 | 3.2 | 11.3 | 0.00 | 2.24 | 1.78 | 84 | 1014.0 |
| 20260505175501 | 13 | 268 | 6.4 | 11.3 | 0.00 | 2.24 | 1.78 | 84 | 1018.4 |
| 20260505175100 | 13 | 274 | 4.8 | 11.3 | 0.00 | 2.24 | 1.78 | 83 | 1014.0 |
| 20260505175001 | 13 | 262 | 4.8 | 12.9 | 0.00 | 2.24 | 1.78 | 83 | 1018.5 |
| 20260505174605 | 13 | 280 | 4.8 | 14.5 | 0.00 | 2.24 | 1.78 | 84 | 1014.0 |
| 20260505174501 | 13 | 243 | 6.4 | 16.1 | 0.00 | 2.24 | 1.78 | 84 | 1018.5 |
| 20260505174059 | 13 | 307 | 3.2 | 16.1 | 0.00 | 2.24 | 1.78 | 84 | 1014.0 |
| 20260505174002 | 13 | 284 | 9.7 | 16.1 | 0.00 | 2.24 | 1.78 | 84 | 1018.6 |
| 20260505173600 | 13 | 240 | 9.7 | 16.1 | 0.00 | 2.24 | 1.78 | 84 | 1014.0 |
| 20260505173501 | 13 | 262 | 8.0 | 16.1 | 0.00 | 2.24 | 1.78 | 85 | 1018.5 |
| 20260505173100 | 13 | 260 | 6.4 | 14.5 | 0.00 | 2.24 | 1.78 | 87 | 1014.1 |
| 20260505173001 | 13 | 234 | 6.4 | 14.5 | 0.00 | 2.24 | 1.78 | 88 | 1018.6 |
| 20260505172600 | 12 | 272 | 6.4 | 16.1 | 0.00 | 2.24 | 1.78 | 91 | 1014.1 |
| 20260505172503 | 12 | 307 | 8.0 | 16.1 | 0.00 | 2.24 | 1.78 | 92 | 1018.6 |
| 20260505172103 | 12 | 238 | 8.0 | 16.1 | 0.00 | 2.24 | 1.78 | 92 | 1014.1 |
| 20260505172001 | 12 | 285 | 6.4 | 16.1 | 0.00 | 2.24 | 1.78 | 93 | 1018.6 |
| 20260505171600 | 12 | 286 | 3.2 | 12.9 | 0.00 | 2.24 | 1.78 | 94 | 1014.1 |
| 20260505171102 | 12 | 212 | 3.2 | 12.9 | 0.00 | 2.24 | 1.78 | 95 | 1014.2 |
| 20260505171002 | 12 | 266 | 6.4 | 12.9 | 0.00 | 2.24 | 1.78 | 94 | 1018.7 |
| 20260505170600 | 12 | 272 | 6.4 | 16.1 | 0.00 | 2.24 | 1.78 | 93 | 1014.2 |
| 20260505170501 | 12 | 295 | 4.8 | 16.1 | 0.00 | 2.24 | 1.78 | 94 | 1018.7 |
| 20260505170100 | 12 | 306 | 6.4 | 16.1 | 0.00 | 2.24 | 1.78 | 94 | 1014.2 |
| 20260505170005 | 12 | 292 | 4.8 | 16.1 | 0.00 | 2.24 | 1.78 | 93 | 1018.7 |
| 20260505170002 | 12 | 292 | 6.4 | 16.1 | 0.00 | 2.24 | 1.78 | 93 | 1014.2 |
| 20260505165600 | 12 | 224 | 3.2 | 12.9 | 0.00 | 2.24 | 1.78 | 94 | 1014.2 |
| 20260505165502 | 12 | 256 | 4.8 | 12.9 | 0.00 | 2.24 | 1.78 | 94 | 1018.8 |
| 20260505165101 | 12 | 255 | 3.2 | 11.3 | 0.00 | 2.24 | 1.78 | 93 | 1014.2 |
| 20260505165001 | 12 | 290 | 4.8 | 9.7 | 0.00 | 2.24 | 1.78 | 94 | 1018.7 |
| 20260505164606 | 12 | 293 | 4.8 | 8.0 | 0.03 | 2.24 | 1.78 | 93 | 1014.2 |
| 20260505164100 | 12 | 262 | 1.6 | 9.7 | 0.05 | 2.24 | 1.78 | 94 | 1014.2 |
| 20260505164001 | 12 | 193 | 3.2 | 9.7 | 0.05 | 2.24 | 1.78 | 94 | 1018.8 |
| 20260505163600 | 12 | 205 | 0.0 | 6.4 | 0.05 | 2.24 | 1.78 | 96 | 1014.3 |
| 20260505163502 | 12 | 249 | 3.2 | 8.0 | 0.05 | 2.24 | 1.78 | 96 | 1018.8 |
| 20260505163100 | 12 | 241 | 1.6 | 8.0 | 0.05 | 2.24 | 1.78 | 95 | 1014.2 |
| 20260505163002 | 12 | 248 | 3.2 | 8.0 | 0.05 | 2.24 | 1.78 | 95 | 1018.8 |
| 20260505162600 | 12 | 264 | 3.2 | 6.4 | 0.05 | 2.24 | 1.78 | 95 | 1014.3 |
| 20260505162501 | 12 | 231 | 3.2 | 6.4 | 0.05 | 2.24 | 1.78 | 95 | 1018.8 |
| 20260505162100 | 12 | 168 | 3.2 | 6.4 | 0.05 | 2.24 | 1.78 | 95 | 1014.3 |
| 20260505162001 | 12 | 228 | 3.2 | 8.0 | 0.05 | 2.24 | 1.78 | 95 | 1018.9 |
| 20260505161607 | 11 | 212 | 0.0 | 8.0 | 0.05 | 2.24 | 1.78 | 95 | 1014.4 |
| 20260505161501 | 11 | 222 | 3.2 | 8.0 | 0.05 | 2.24 | 1.78 | 94 | 1018.9 |
| 20260505161100 | 12 | 247 | 3.2 | 8.0 | 0.05 | 2.24 | 1.78 | 95 | 1014.3 |
| 20260505161002 | 12 | 241 | 1.6 | 8.0 | 0.05 | 2.24 | 1.78 | 95 | 1018.8 |
| 20260505160602 | 12 | 129 | 1.6 | 4.8 | 0.05 | 2.24 | 1.78 | 95 | 1014.3 |
| 20260505160501 | 12 | 241 | 1.6 | 4.8 | 0.05 | 2.24 | 1.78 | 95 | 1018.9 |
| 20260505153108 | 11 | 285 | 3.2 | 19.3 | 0.15 | 2.21 | 1.75 | 94 | 1014.4 |
| 20260505153003 | 11 | 283 | 8.0 | 19.3 | 0.15 | 2.21 | 1.75 | 94 | 1019.0 |
| 20260505152600 | 11 | 293 | 8.0 | 19.3 | 0.15 | 2.21 | 1.75 | 93 | 1014.5 |
| 20260505152501 | 11 | 281 | 6.4 | 14.5 | 0.15 | 2.21 | 1.75 | 93 | 1019.0 |
| 20260505152059 | 11 | 245 | 8.0 | 14.5 | 0.15 | 2.21 | 1.75 | 93 | 1014.5 |
| 20260505152003 | 11 | 257 | 4.8 | 14.5 | 0.15 | 2.21 | 1.75 | 93 | 1019.0 |
| 20260505151610 | 12 | 277 | 4.8 | 12.9 | 0.23 | 2.21 | 1.75 | 94 | 1014.5 |
| 20260505151501 | 12 | 276 | 4.8 | 11.3 | 0.30 | 2.21 | 1.75 | 95 | 1019.0 |
| 20260505151100 | 11 | 259 | 3.2 | 11.3 | 0.30 | 2.21 | 1.75 | 94 | 1014.6 |
| 20260505151001 | 11 | 308 | 6.4 | 11.3 | 0.33 | 2.21 | 1.75 | 95 | 1019.0 |
| 20260505150600 | 11 | 271 | 4.8 | 12.9 | 0.33 | 2.21 | 1.75 | 94 | 1014.5 |
| 20260505140600 | 12 | 170 | 1.6 | 6.4 | 0.15 | 1.88 | 1.42 | 93 | 1014.4 |
| 20260505140502 | 12 | 132 | 3.2 | 6.4 | 0.15 | 1.88 | 1.42 | 93 | 1019.0 |
| 20260505140114 | 12 | 155 | 1.6 | 8.0 | 0.18 | 1.88 | 1.42 | 93 | 1014.5 |